Hourly Data Report for September 11, 2019

TORONTO CITY
ONTARIO
Current Station Operator: ECCC - MSC

43°40'00.000" N
79°24'00.000" W
112.50 m
6158355
71508
XTO

Download Data

Hourly Data (September 2019)
Hourly Data Report for September 11, 2019
TIME
LST
Temp Definition
°C
Dew Point Definition
°C
Rel Hum Definition
%
Precip. Amount Definition
mm

Wind Dir Definition
10's deg

Wind Spd Definition
km/h
Visibility Definition
km
Stn Press Definition
kPa
Hmdx Definition


Wind Chill Definition


Weather Definition


00:00 20.4 18.6 89 13.5       100.45 27   LegendNANA
01:00 20.3 18.7 90 0.0       100.42 27   LegendNANA
02:00 19.6 18.1 91 0.0       100.42     LegendNANA
03:00 19.3 17.8 91 0.0       100.44     LegendNANA
04:00 18.9 17.5 91 0.0       100.43     LegendNANA
05:00 18.5 17.1 92 0.0       100.47     LegendNANA
06:00 18.4 17.0 92 0.0       100.52     LegendNANA
07:00 19.1 17.8 92 0.0       100.56     LegendNANA
08:00 20.7 19.4 92 0.0       100.57 28   LegendNANA
09:00 22.6 19.8 84 0.0       100.59 30   LegendNANA
10:00 24.1 19.8 77 0.0       100.59 32   LegendNANA
11:00 24.6 19.1 72 0.0       100.59 31   LegendNANA
12:00 25.2 19.3 70 0.0       100.58 32   LegendNANA
13:00 26.5 18.5 62 0.0       100.55 33   LegendNANA
14:00 27.1 18.3 59 0.0       100.51 33   LegendNANA
15:00 26.7 18.9 62 0.0       100.43 33   LegendNANA
16:00 27.2 18.7 60 0.0       100.40 34   LegendNANA
17:00 26.1 18.4 63 0.0       100.42 32   LegendNANA
18:00 26.0 18.0 61 0.0       100.45 32   LegendNANA
19:00 25.0 16.3 58 0.0       100.49 30   LegendNANA
20:00 22.7 16.6 68 0.3       100.36 28   LegendNANA
21:00 22.2 16.9 72 0.0       100.45 27   LegendNANA
22:00 21.6 15.6 69 0.0       100.49 26   LegendNANA
23:00 21.1 15.7 71 0.0       100.51 26   LegendNANA

Notes on Data Quality.

Legend

  • E = Estimated
  • M = Missing
  • NA = Not Available*
  • [empty] = Indicates an unobserved value
Date modified: